Location: La Brionne
(46.1728°N, 1.7849°E)
Time: 18:05:07
(UTC+00:00)

USA 215 - Pass Details

Date: 24 October 2021
Orbit: 1099 x 1109 km, 123.0° (Epoch: 20 November)

Event Time Altitude Azimuth Distance (km) Brightness Sun altitude
Exits shadow 17:21:14 - 52° (NE) 3,647 5.4 -5.9°
Reaches altitude 10° 17:23:00 10° 51° (NE) 2,965 5.0 -6.2°
Maximum altitude 17:29:33 79° 326° (NNW) 1,125 3.4 -7.4°
Drops below altitude 10° 17:36:05 10° 241° (WSW) 2,961 6.8 -8.5°
Sets 17:38:34 0° 240° (WSW) 3,918 7.6 -8.9°
